Вернуться в каталог

KUIPER-00452

АктивенСвязьLEO
NORAD 68946·PAYLOAD·🇺🇸 United States

Запущен Apr 30, 2026 с Guiana Space Centre

Loading…

Ближайшие Пролёты (ближайшие 24 часа)

TLE

СвежийSource: CelesTrak SupGP

Эпоха: Sep 14, 2026, 19:37 UTC

1 68946C 26098AD  26257.81796296  .00007938  00000+0  10393-2 0  2579
2 68946  51.9028  14.3254 0000605  98.7634 137.0476 14.79918869    18

Отслеживайте KUIPER-00452 в реальном времени с AllMySat

Download on the App Store